Time,TemperatureF,DewpointF,PressureIn,WindDirection,WindDirectionDegrees,WindSpeedMPH,WindSpeedGustMPH,Humidity,HourlyPrecipIn,Conditions,Clouds,dailyrainin,SolarRadiationWatts/m^2,SoftwareType,DateUTC
2013-02-02 00:00:00,17.0,6.6,30.36,NW,304,2.0,3.0,63,0.00,,,0.00,0.00,VWS V14.01,2013-02-02 05:00:00,
2013-02-02 00:03:00,17.0,6.9,30.36,WNW,299,0.0,1.0,64,0.00,,,0.00,0.00,VWS V14.01,2013-02-02 05:03:00,
2013-02-02 00:08:00,17.0,6.9,30.36,West,273,1.0,3.0,64,0.00,,,0.00,0.00,VWS V14.01,2013-02-02 05:08:00,
2013-02-02 00:13:00,17.0,6.9,30.37,West,260,0.0,3.0,64,0.00,,,0.00,0.00,VWS V14.01,2013-02-02 05:13:00,
2013-02-02 00:18:00,16.9,7.2,30.37,WSW,248,0.0,4.0,65,0.00,,,0.00,0.00,VWS V14.01,2013-02-02 05:18:00,
2013-02-02 00:23:00,17.0,7.3,30.37,WSW,248,0.0,3.0,65,0.00,,,0.00,0.00,VWS V14.01,2013-02-02 05:23:00,
2013-02-02 00:28:00,16.9,6.8,30.37,SW,221,4.0,6.0,64,0.00,,,0.00,0.00,VWS V14.01,2013-02-02 05:28:00,
2013-02-02 00:33:00,16.9,6.8,30.37,WSW,245,2.0,2.0,64,0.00,,,0.00,0.00,VWS V14.01,2013-02-02 05:33:00,
2013-02-02 00:39:00,16.8,6.8,30.37,West,272,0.0,3.0,64,0.00,,,0.00,0.00,VWS V14.01,2013-02-02 05:39:00,
2013-02-02 00:44:00,16.7,6.7,30.37,West,272,0.0,1.0,64,0.00,,,0.00,0.00,VWS V14.01,2013-02-02 05:44:00,
2013-02-02 00:49:00,16.7,6.7,30.37,West,263,0.0,2.0,64,0.00,,,0.00,0.00,VWS V14.01,2013-02-02 05:49:00,
2013-02-02 00:54:00,16.6,6.6,30.37,WSW,240,0.0,3.0,64,0.00,,,0.00,0.00,VWS V14.01,2013-02-02 05:54:00,
2013-02-02 00:59:00,16.5,6.5,30.37,WSW,240,0.0,2.0,64,0.00,,,0.00,0.00,VWS V14.01,2013-02-02 05:59:00,
2013-02-02 01:04:00,16.5,6.5,30.37,WSW,240,0.0,0.0,64,0.00,,,0.00,0.00,VWS V14.01,2013-02-02 06:04:00,
2013-02-02 01:09:00,16.4,6.4,30.37,WSW,246,2.0,3.0,64,0.00,,,0.00,0.00,VWS V14.01,2013-02-02 06:09:00,
2013-02-02 01:14:00,16.3,6.3,30.37,WNW,291,0.0,5.0,64,0.00,,,0.00,0.00,VWS V14.01,2013-02-02 06:14:00,
2013-02-02 01:19:00,16.2,6.2,30.37,WNW,292,0.0,2.0,64,0.00,,,0.00,0.00,VWS V14.01,2013-02-02 06:19:00,
2013-02-02 01:24:00,16.2,6.2,30.36,NW,317,4.0,4.0,64,0.00,,,0.00,0.00,VWS V14.01,2013-02-02 06:24:00,
2013-02-02 01:29:00,16.2,6.2,30.36,NW,318,1.0,2.0,64,0.00,,,0.00,0.00,VWS V14.01,2013-02-02 06:29:00,
2013-02-02 01:34:00,16.2,6.2,30.36,NW,323,0.0,3.0,64,0.00,,,0.00,0.00,VWS V14.01,2013-02-02 06:34:00,
2013-02-02 01:40:00,16.2,6.2,30.35,NW,323,0.0,3.0,64,0.00,,,0.00,0.00,VWS V14.01,2013-02-02 06:40:00,
2013-02-02 01:45:00,16.1,6.1,30.35,NW,323,0.0,0.0,64,0.00,,,0.00,0.00,VWS V14.01,2013-02-02 06:45:00,
2013-02-02 01:50:00,16.1,6.1,30.35,NW,323,0.0,1.0,64,0.00,,,0.00,0.00,VWS V14.01,2013-02-02 06:50:00,
2013-02-02 01:55:00,16.0,6.0,30.35,NW,322,0.0,0.0,64,0.00,,,0.00,0.00,VWS V14.01,2013-02-02 06:55:00,
2013-02-02 02:00:00,15.9,5.9,30.35,NW,323,0.0,2.0,64,0.00,,,0.00,0.00,VWS V14.01,2013-02-02 07:00:00,
2013-02-02 02:05:00,15.8,5.8,30.35,NW,323,0.0,1.0,64,0.00,,,0.00,0.00,VWS V14.01,2013-02-02 07:05:00,
2013-02-02 02:10:00,15.8,5.8,30.35,NW,323,0.0,0.0,64,0.00,,,0.00,0.00,VWS V14.01,2013-02-02 07:10:00,
2013-02-02 02:15:00,15.7,5.7,30.35,NW,322,0.0,0.0,64,0.00,,,0.00,0.00,VWS V14.01,2013-02-02 07:15:00,
2013-02-02 02:20:00,15.7,5.7,30.34,NW,323,0.0,0.0,64,0.00,,,0.00,0.00,VWS V14.01,2013-02-02 07:20:00,
2013-02-02 02:25:00,15.6,5.9,30.35,NW,323,0.0,0.0,65,0.00,,,0.00,0.00,VWS V14.01,2013-02-02 07:25:00,
2013-02-02 02:30:00,15.4,6.1,30.35,NW,322,0.0,0.0,66,0.00,,,0.00,0.00,VWS V14.01,2013-02-02 07:30:00,
2013-02-02 02:35:00,15.3,6.0,30.35,NW,323,0.0,0.0,66,0.00,,,0.00,0.00,VWS V14.01,2013-02-02 07:35:00,
2013-02-02 02:40:00,15.2,5.9,30.35,NW,322,0.0,0.0,66,0.00,,,0.00,0.00,VWS V14.01,2013-02-02 07:40:00,
2013-02-02 02:45:00,15.0,6.0,30.35,NW,323,0.0,0.0,67,0.00,,,0.00,0.00,VWS V14.01,2013-02-02 07:45:00,
2013-02-02 02:50:00,14.8,5.8,30.35,NW,323,0.0,0.0,67,0.00,,,0.00,0.00,VWS V14.01,2013-02-02 07:50:00,
2013-02-02 02:56:00,14.6,5.7,30.34,NW,323,0.0,0.0,67,0.00,,,0.00,0.00,VWS V14.01,2013-02-02 07:56:00,
2013-02-02 03:01:00,14.4,5.5,30.34,NW,323,0.0,0.0,67,0.00,,,0.00,0.00,VWS V14.01,2013-02-02 08:01:00,
2013-02-02 03:06:00,14.3,5.4,30.35,NW,323,0.0,0.0,67,0.00,,,0.00,0.00,VWS V14.01,2013-02-02 08:06:00,
2013-02-02 03:11:00,14.1,5.2,30.35,NW,323,0.0,0.0,67,0.00,,,0.00,0.00,VWS V14.01,2013-02-02 08:11:00,
2013-02-02 03:16:00,13.9,5.3,30.35,NW,323,0.0,0.0,68,0.00,,,0.00,0.00,VWS V14.01,2013-02-02 08:16:00,
2013-02-02 03:21:00,13.7,5.1,30.34,NW,323,0.0,0.0,68,0.00,,,0.00,0.00,VWS V14.01,2013-02-02 08:21:00,
2013-02-02 03:26:00,13.6,5.3,30.34,NW,323,0.0,0.0,69,0.00,,,0.00,0.00,VWS V14.01,2013-02-02 08:26:00,
2013-02-02 03:31:00,13.5,5.2,30.34,NW,323,0.0,0.0,69,0.00,,,0.00,0.00,VWS V14.01,2013-02-02 08:31:00,
2013-02-02 03:36:00,13.4,5.1,30.34,NW,323,0.0,0.0,69,0.00,,,0.00,0.00,VWS V14.01,2013-02-02 08:36:00,
2013-02-02 03:41:00,13.3,5.4,30.34,NW,323,0.0,0.0,70,0.00,,,0.00,0.00,VWS V14.01,2013-02-02 08:41:00,
2013-02-02 03:46:00,13.3,5.4,30.34,NW,323,0.0,0.0,70,0.00,,,0.00,0.00,VWS V14.01,2013-02-02 08:46:00,
2013-02-02 03:51:00,13.2,5.6,30.34,NW,323,0.0,0.0,71,0.00,,,0.00,0.00,VWS V14.01,2013-02-02 08:51:00,
2013-02-02 03:57:00,13.1,5.8,30.34,NW,323,0.0,0.0,72,0.00,,,0.00,0.00,VWS V14.01,2013-02-02 08:57:00,
2013-02-02 04:02:00,13.1,6.1,30.34,NW,323,0.0,0.0,73,0.00,,,0.00,0.00,VWS V14.01,2013-02-02 09:02:00,
2013-02-02 04:07:00,13.1,5.8,30.34,NW,323,0.0,0.0,72,0.00,,,0.00,0.00,VWS V14.01,2013-02-02 09:07:00,
2013-02-02 04:12:00,13.0,6.0,30.33,NW,323,0.0,0.0,73,0.00,,,0.00,0.00,VWS V14.01,2013-02-02 09:12:00,
2013-02-02 04:17:00,13.0,6.0,30.33,NW,322,0.0,0.0,73,0.00,,,0.00,0.00,VWS V14.01,2013-02-02 09:17:00,
2013-02-02 04:22:00,12.9,5.9,30.33,NW,322,0.0,0.0,73,0.00,,,0.00,0.00,VWS V14.01,2013-02-02 09:22:00,
2013-02-02 04:27:00,12.9,5.9,30.33,NW,323,0.0,0.0,73,0.00,,,0.00,0.00,VWS V14.01,2013-02-02 09:27:00,
2013-02-02 04:32:00,13.0,6.3,30.33,NW,323,0.0,1.0,74,0.00,,,0.00,0.00,VWS V14.01,2013-02-02 09:32:00,
2013-02-02 04:37:00,13.1,6.4,30.33,NW,323,0.0,1.0,74,0.00,,,0.00,0.00,VWS V14.01,2013-02-02 09:37:00,
2013-02-02 04:42:00,13.2,6.5,30.33,NW,322,0.0,0.0,74,0.00,,,0.00,0.00,VWS V14.01,2013-02-02 09:42:00,
2013-02-02 04:47:00,13.3,6.9,30.33,NW,323,0.0,0.0,75,0.00,,,0.00,0.00,VWS V14.01,2013-02-02 09:47:00,
2013-02-02 04:53:00,13.4,6.7,30.33,NW,319,0.0,0.0,74,0.00,,,0.00,0.00,VWS V14.01,2013-02-02 09:53:00,
2013-02-02 04:58:00,13.5,6.8,30.33,NW,319,0.0,0.0,74,0.00,,,0.00,0.00,VWS V14.01,2013-02-02 09:58:00,
2013-02-02 05:03:00,13.7,6.7,30.33,NW,319,0.0,1.0,73,0.00,,,0.00,0.00,VWS V14.01,2013-02-02 10:03:00,
2013-02-02 05:08:00,13.8,6.8,30.32,NW,319,0.0,0.0,73,0.00,,,0.00,0.00,VWS V14.01,2013-02-02 10:08:00,
2013-02-02 05:13:00,14.0,6.7,30.32,NW,319,0.0,0.0,72,0.00,,,0.00,0.00,VWS V14.01,2013-02-02 10:13:00,
2013-02-02 05:18:00,14.0,6.7,30.32,NW,319,0.0,0.0,72,0.00,,,0.00,0.00,VWS V14.01,2013-02-02 10:18:00,
2013-02-02 05:23:00,14.0,6.7,30.33,NW,319,0.0,0.0,72,0.00,,,0.00,0.00,VWS V14.01,2013-02-02 10:23:00,
2013-02-02 05:28:00,14.0,6.7,30.32,NW,319,0.0,0.0,72,0.00,,,0.00,0.00,VWS V14.01,2013-02-02 10:28:00,
2013-02-02 05:33:00,14.0,6.7,30.32,NW,319,0.0,0.0,72,0.00,,,0.00,0.00,VWS V14.01,2013-02-02 10:33:00,
2013-02-02 05:38:00,14.0,6.7,30.32,NW,319,0.0,0.0,72,0.00,,,0.00,0.00,VWS V14.01,2013-02-02 10:38:00,
2013-02-02 05:43:00,13.9,6.6,30.32,NW,319,0.0,0.0,72,0.00,,,0.00,0.00,VWS V14.01,2013-02-02 10:43:00,
2013-02-02 05:49:00,13.8,6.5,30.32,NW,319,0.0,0.0,72,0.00,,,0.00,0.00,VWS V14.01,2013-02-02 10:49:00,
2013-02-02 05:54:00,13.8,6.5,30.32,NW,319,0.0,0.0,72,0.00,,,0.00,0.00,VWS V14.01,2013-02-02 10:54:00,
2013-02-02 05:59:00,13.7,6.4,30.32,NW,319,0.0,0.0,72,0.00,,,0.00,0.00,VWS V14.01,2013-02-02 10:59:00,
2013-02-02 06:04:00,13.6,6.3,30.32,NW,319,0.0,0.0,72,0.00,,,0.00,0.00,VWS V14.01,2013-02-02 11:04:00,
2013-02-02 06:09:00,13.6,6.3,30.32,NW,319,0.0,0.0,72,0.00,,,0.00,0.00,VWS V14.01,2013-02-02 11:09:00,
2013-02-02 06:14:00,13.6,6.6,30.32,NW,319,0.0,0.0,73,0.00,,,0.00,0.00,VWS V14.01,2013-02-02 11:14:00,
2013-02-02 06:19:00,13.5,6.5,30.32,NW,319,0.0,0.0,73,0.00,,,0.00,0.00,VWS V14.01,2013-02-02 11:19:00,
2013-02-02 06:24:00,13.5,6.8,30.32,NW,319,0.0,0.0,74,0.00,,,0.00,0.00,VWS V14.01,2013-02-02 11:24:00,
2013-02-02 06:29:00,13.4,7.0,30.32,NW,319,0.0,0.0,75,0.00,,,0.00,0.00,VWS V14.01,2013-02-02 11:29:00,
2013-02-02 06:34:00,13.4,7.0,30.32,NW,319,0.0,0.0,75,0.00,,,0.00,0.00,VWS V14.01,2013-02-02 11:34:00,
2013-02-02 06:39:00,13.3,6.9,30.32,NW,319,0.0,0.0,75,0.00,,,0.00,0.00,VWS V14.01,2013-02-02 11:39:00,
2013-02-02 06:44:00,13.2,6.8,30.32,NW,319,0.0,0.0,75,0.00,,,0.00,0.00,VWS V14.01,2013-02-02 11:44:00,
2013-02-02 06:50:00,13.1,6.7,30.32,NW,319,0.0,0.0,75,0.00,,,0.00,0.00,VWS V14.01,2013-02-02 11:50:00,
2013-02-02 06:55:00,13.1,6.7,30.32,NW,319,0.0,0.0,75,0.00,,,0.00,0.00,VWS V14.01,2013-02-02 11:55:00,
2013-02-02 07:00:00,12.9,6.5,30.33,NW,319,0.0,0.0,75,0.00,,,0.00,0.00,VWS V14.01,2013-02-02 12:00:00,
2013-02-02 07:05:00,12.8,6.7,30.32,NW,319,0.0,0.0,76,0.00,,,0.00,0.00,VWS V14.01,2013-02-02 12:05:00,
2013-02-02 07:10:00,12.7,6.6,30.33,NW,319,0.0,0.0,76,0.00,,,0.00,0.00,VWS V14.01,2013-02-02 12:10:00,
2013-02-02 07:15:00,12.6,6.5,30.32,NW,319,0.0,0.0,76,0.00,,,0.00,0.00,VWS V14.01,2013-02-02 12:15:00,
2013-02-02 07:20:00,12.5,6.7,30.32,NW,319,0.0,0.0,77,0.00,,,0.00,0.00,VWS V14.01,2013-02-02 12:20:00,
2013-02-02 07:25:00,12.5,6.7,30.32,NW,319,0.0,0.0,77,0.00,,,0.00,5.00,VWS V14.01,2013-02-02 12:25:00,
2013-02-02 07:30:00,12.5,6.7,30.32,NW,319,0.0,0.0,77,0.00,,,0.00,7.00,VWS V14.01,2013-02-02 12:30:00,
2013-02-02 07:35:00,12.4,6.9,30.33,NW,319,0.0,0.0,78,0.00,,,0.00,9.00,VWS V14.01,2013-02-02 12:35:00,
2013-02-02 07:40:00,12.4,6.9,30.32,NW,319,0.0,0.0,78,0.00,,,0.00,11.00,VWS V14.01,2013-02-02 12:40:00,
2013-02-02 07:45:00,12.4,6.9,30.32,NW,319,0.0,0.0,78,0.00,,,0.00,14.00,VWS V14.01,2013-02-02 12:45:00,
2013-02-02 07:50:00,12.4,6.9,30.33,NW,319,0.0,0.0,78,0.00,,,0.00,18.00,VWS V14.01,2013-02-02 12:50:00,
2013-02-02 07:55:00,12.4,7.1,30.33,NW,319,0.0,0.0,79,0.00,,,0.00,19.00,VWS V14.01,2013-02-02 12:55:00,
2013-02-02 08:01:00,12.5,7.2,30.33,NW,319,0.0,0.0,79,0.00,,,0.00,21.00,VWS V14.01,2013-02-02 13:01:00,
2013-02-02 08:06:00,12.6,7.6,30.32,NW,319,0.0,0.0,80,0.00,,,0.00,30.00,VWS V14.01,2013-02-02 13:06:00,
2013-02-02 08:11:00,12.8,8.1,30.32,NW,319,0.0,0.0,81,0.00,,,0.00,58.00,VWS V14.01,2013-02-02 13:11:00,
2013-02-02 08:16:00,13.9,9.2,30.32,WSW,250,2.0,2.0,81,0.00,,,0.00,74.00,VWS V14.01,2013-02-02 13:16:00,
2013-02-02 08:21:00,14.8,9.8,30.32,SSW,207,0.0,1.0,80,0.00,,,0.00,67.00,VWS V14.01,2013-02-02 13:21:00,
2013-02-02 08:26:00,15.5,10.4,30.32,SSW,207,1.0,2.0,80,0.00,,,0.00,70.00,VWS V14.01,2013-02-02 13:26:00,
2013-02-02 08:31:00,15.8,10.5,30.32,South,184,1.0,3.0,79,0.00,,,0.00,56.00,VWS V14.01,2013-02-02 13:31:00,
2013-02-02 08:36:00,16.0,10.4,30.32,SSW,209,7.0,7.0,78,0.00,,,0.00,56.00,VWS V14.01,2013-02-02 13:36:00,
2013-02-02 08:41:00,16.0,10.1,30.31,SSW,205,3.0,5.0,77,0.00,,,0.00,54.00,VWS V14.01,2013-02-02 13:41:00,
2013-02-02 08:46:00,16.1,9.9,30.32,SSW,203,2.0,5.0,76,0.00,,,0.00,72.00,VWS V14.01,2013-02-02 13:46:00,
2013-02-02 08:51:00,16.4,10.2,30.31,South,188,1.0,2.0,76,0.00,,,0.00,121.00,VWS V14.01,2013-02-02 13:51:00,
2013-02-02 08:57:00,16.8,10.6,30.31,SSW,198,2.0,6.0,76,0.00,,,0.00,91.00,VWS V14.01,2013-02-02 13:57:00,
2013-02-02 09:02:00,16.9,10.4,30.31,SSW,203,3.0,7.0,75,0.00,,,0.00,100.00,VWS V14.01,2013-02-02 14:02:00,
2013-02-02 09:07:00,17.0,10.2,30.31,SSW,195,4.0,7.0,74,0.00,,,0.00,100.00,VWS V14.01,2013-02-02 14:07:00,
2013-02-02 09:12:00,17.2,10.4,30.31,SSW,198,5.0,6.0,74,0.00,,,0.00,120.00,VWS V14.01,2013-02-02 14:12:00,
2013-02-02 09:17:00,17.3,10.4,30.31,SSW,205,3.0,3.0,74,0.00,,,0.00,120.00,VWS V14.01,2013-02-02 14:17:00,
2013-02-02 09:22:00,17.5,10.3,30.31,SSW,199,4.0,7.0,73,0.00,,,0.00,113.00,VWS V14.01,2013-02-02 14:22:00,
2013-02-02 09:27:00,17.7,10.5,30.31,SSW,205,4.0,7.0,73,0.00,,,0.00,125.00,VWS V14.01,2013-02-02 14:27:00,
2013-02-02 09:32:00,17.8,10.3,30.31,SSW,210,6.0,8.0,72,0.00,,,0.00,137.00,VWS V14.01,2013-02-02 14:32:00,
2013-02-02 09:37:00,17.9,10.1,30.31,SSW,213,2.0,7.0,71,0.00,,,0.00,139.00,VWS V14.01,2013-02-02 14:37:00,
2013-02-02 09:43:00,18.1,10.3,30.31,SSW,206,4.0,7.0,71,0.00,,,0.00,144.00,VWS V14.01,2013-02-02 14:43:00,
2013-02-02 09:48:00,18.3,10.5,30.30,SSW,195,0.0,4.0,71,0.00,,,0.00,139.00,VWS V14.01,2013-02-02 14:48:00,
2013-02-02 09:53:00,18.5,10.7,30.30,SSW,192,4.0,5.0,71,0.00,,,0.00,134.00,VWS V14.01,2013-02-02 14:53:00,
2013-02-02 09:58:00,18.8,11.0,30.30,SW,227,1.0,6.0,71,0.00,,,0.00,128.00,VWS V14.01,2013-02-02 14:58:00,
2013-02-02 10:03:00,19.1,11.6,30.30,SSW,211,2.0,4.0,72,0.00,,,0.00,121.00,VWS V14.01,2013-02-02 15:03:00,
2013-02-02 10:08:00,19.3,11.4,30.30,SSW,194,2.0,6.0,71,0.00,,,0.00,116.00,VWS V14.01,2013-02-02 15:08:00,
2013-02-02 10:13:00,19.4,11.2,30.30,SSW,205,2.0,7.0,70,0.00,,,0.00,121.00,VWS V14.01,2013-02-02 15:13:00,
2013-02-02 10:19:00,19.7,11.8,30.29,SSW,205,1.0,4.0,71,0.00,,,0.00,118.00,VWS V14.01,2013-02-02 15:19:00,
2013-02-02 10:24:00,19.9,12.0,30.29,SSW,192,2.0,6.0,71,0.00,,,0.00,123.00,VWS V14.01,2013-02-02 15:24:00,
2013-02-02 10:29:00,20.1,11.9,30.29,South,175,4.0,6.0,70,0.00,,,0.00,134.00,VWS V14.01,2013-02-02 15:29:00,
2013-02-02 10:34:00,20.3,11.8,30.29,SSW,210,4.0,7.0,69,0.00,,,0.00,148.00,VWS V14.01,2013-02-02 15:34:00,
2013-02-02 10:39:00,20.4,11.9,30.28,South,184,3.0,7.0,69,0.00,,,0.00,155.00,VWS V14.01,2013-02-02 15:39:00,
2013-02-02 10:44:00,20.6,12.1,30.28,SSW,200,4.0,7.0,69,0.00,,,0.00,163.00,VWS V14.01,2013-02-02 15:44:00,
2013-02-02 10:49:00,20.8,11.9,30.27,South,187,6.0,7.0,68,0.00,,,0.00,171.00,VWS V14.01,2013-02-02 15:49:00,
2013-02-02 10:55:00,21.0,12.1,30.27,SSW,195,2.0,6.0,68,0.00,,,0.00,176.00,VWS V14.01,2013-02-02 15:55:00,
2013-02-02 11:00:00,21.2,12.0,30.27,South,179,3.0,6.0,67,0.00,,,0.00,179.00,VWS V14.01,2013-02-02 16:00:00,
2013-02-02 11:05:00,21.4,12.2,30.26,South,181,2.0,7.0,67,0.00,,,0.00,171.00,VWS V14.01,2013-02-02 16:05:00,
2013-02-02 11:10:00,21.5,11.9,30.26,SW,221,5.0,7.0,66,0.00,,,0.00,163.00,VWS V14.01,2013-02-02 16:10:00,
2013-02-02 11:15:00,21.5,11.6,30.26,South,183,3.0,3.0,65,0.00,,,0.00,160.00,VWS V14.01,2013-02-02 16:15:00,
2013-02-02 11:20:00,21.5,11.6,30.25,South,190,1.0,3.0,65,0.00,,,0.00,141.00,VWS V14.01,2013-02-02 16:20:00,
2013-02-02 11:25:00,21.5,11.2,30.25,SW,215,4.0,5.0,64,0.00,,,0.00,130.00,VWS V14.01,2013-02-02 16:25:00,
2013-02-02 11:30:00,21.6,11.0,30.25,SSW,205,6.0,7.0,63,0.00,,,0.00,132.00,VWS V14.01,2013-02-02 16:30:00,
2013-02-02 11:35:00,21.7,11.1,30.24,SSW,196,6.0,6.0,63,0.00,,,0.00,144.00,VWS V14.01,2013-02-02 16:35:00,
2013-02-02 11:41:00,21.8,11.2,30.24,SW,214,6.0,6.0,63,0.00,,,0.00,156.00,VWS V14.01,2013-02-02 16:41:00,
2013-02-02 11:46:00,22.1,11.1,30.23,SSW,207,5.0,5.0,62,0.00,,,0.00,158.00,VWS V14.01,2013-02-02 16:46:00,
2013-02-02 11:51:00,22.3,11.3,30.23,SSW,210,5.0,5.0,62,0.00,,,0.00,174.00,VWS V14.01,2013-02-02 16:51:00,
2013-02-02 11:56:00,22.4,11.0,30.23,SSW,199,7.0,8.0,61,0.00,,,0.00,169.00,VWS V14.01,2013-02-02 16:56:00,
2013-02-02 12:01:00,22.5,11.1,30.22,SW,215,4.0,6.0,61,0.00,,,0.00,160.00,VWS V14.01,2013-02-02 17:01:00,
2013-02-02 12:06:00,22.7,11.3,30.22,SSW,202,5.0,6.0,61,0.00,,,0.00,172.00,VWS V14.01,2013-02-02 17:06:00,
2013-02-02 12:11:00,23.0,11.6,30.21,SW,225,1.0,5.0,61,0.00,,,0.00,162.00,VWS V14.01,2013-02-02 17:11:00,
2013-02-02 12:16:00,23.3,11.9,30.21,SSW,200,4.0,6.0,61,0.00,,,0.00,155.00,VWS V14.01,2013-02-02 17:16:00,
2013-02-02 12:21:00,23.3,11.5,30.21,SW,217,4.0,6.0,60,0.00,,,0.00,165.00,VWS V14.01,2013-02-02 17:21:00,
2013-02-02 12:26:00,23.4,11.6,30.20,SSW,194,4.0,6.0,60,0.00,,,0.00,183.00,VWS V14.01,2013-02-02 17:26:00,
2013-02-02 12:32:00,23.6,11.8,30.20,South,186,5.0,5.0,60,0.00,,,0.00,216.00,VWS V14.01,2013-02-02 17:32:00,
2013-02-02 12:37:00,23.7,11.5,30.20,SSW,213,4.0,5.0,59,0.00,,,0.00,209.00,VWS V14.01,2013-02-02 17:37:00,
2013-02-02 12:42:00,23.9,11.7,30.19,SSW,210,7.0,7.0,59,0.00,,,0.00,197.00,VWS V14.01,2013-02-02 17:42:00,
2013-02-02 12:47:00,23.9,12.1,30.19,SSW,203,2.0,5.0,60,0.00,,,0.00,172.00,VWS V14.01,2013-02-02 17:47:00,
2013-02-02 12:52:00,24.1,12.2,30.18,SSW,207,2.0,7.0,60,0.00,,,0.00,171.00,VWS V14.01,2013-02-02 17:52:00,
2013-02-02 12:57:00,24.1,12.2,30.18,South,183,3.0,7.0,60,0.00,,,0.00,134.00,VWS V14.01,2013-02-02 17:57:00,
2013-02-02 13:02:00,24.0,12.1,30.17,South,170,1.0,6.0,60,0.00,,,0.00,128.00,VWS V14.01,2013-02-02 18:02:00,
2013-02-02 13:07:00,24.2,12.7,30.17,SSE,166,2.0,4.0,61,0.00,,,0.00,144.00,VWS V14.01,2013-02-02 18:07:00,
2013-02-02 13:13:00,24.2,12.7,30.16,South,171,4.0,7.0,61,0.00,,,0.00,151.00,VWS V14.01,2013-02-02 18:13:00,
2013-02-02 13:18:00,24.2,12.3,30.16,South,179,3.0,4.0,60,0.00,,,0.00,160.00,VWS V14.01,2013-02-02 18:18:00,
2013-02-02 13:23:00,24.3,12.4,30.16,South,191,3.0,7.0,60,0.00,,,0.00,181.00,VWS V14.01,2013-02-02 18:23:00,
2013-02-02 13:28:00,24.4,12.5,30.15,South,184,5.0,9.0,60,0.00,,,0.00,174.00,VWS V14.01,2013-02-02 18:28:00,
2013-02-02 13:33:00,24.4,12.5,30.15,South,176,3.0,8.0,60,0.00,,,0.00,167.00,VWS V14.01,2013-02-02 18:33:00,
2013-02-02 13:38:00,24.4,12.5,30.15,SSW,205,4.0,8.0,60,0.00,,,0.00,167.00,VWS V14.01,2013-02-02 18:38:00,
2013-02-02 13:43:00,24.5,13.0,30.15,South,180,4.0,8.0,61,0.00,,,0.00,153.00,VWS V14.01,2013-02-02 18:43:00,
2013-02-02 13:48:00,24.5,12.6,30.14,South,175,3.0,8.0,60,0.00,,,0.00,127.00,VWS V14.01,2013-02-02 18:48:00,
2013-02-02 13:53:00,24.5,12.6,30.14,SW,217,8.0,11.0,60,0.00,,,0.00,146.00,VWS V14.01,2013-02-02 18:53:00,
2013-02-02 13:58:00,24.5,12.6,30.14,SSW,200,6.0,8.0,60,0.00,,,0.00,146.00,VWS V14.01,2013-02-02 18:58:00,
2013-02-02 14:03:00,24.6,13.1,30.14,SSE,161,5.0,9.0,61,0.00,,,0.00,130.00,VWS V14.01,2013-02-02 19:03:00,
2013-02-02 14:09:00,24.7,12.8,30.13,SSW,198,4.0,14.0,60,0.00,,,0.00,114.00,VWS V14.01,2013-02-02 19:09:00,
2013-02-02 14:14:00,24.7,12.8,30.13,SSW,205,4.0,13.0,60,0.00,,,0.00,102.00,VWS V14.01,2013-02-02 19:14:00,
2013-02-02 14:19:00,24.7,12.8,30.13,South,186,6.0,9.0,60,0.00,,,0.00,102.00,VWS V14.01,2013-02-02 19:19:00,
2013-02-02 14:24:00,24.7,12.8,30.12,SSW,202,5.0,9.0,60,0.00,,,0.00,88.00,VWS V14.01,2013-02-02 19:24:00,
2013-02-02 14:29:00,24.8,12.9,30.13,SSE,159,4.0,7.0,60,0.00,,,0.00,83.00,VWS V14.01,2013-02-02 19:29:00,
2013-02-02 14:34:00,24.9,13.0,30.13,SSW,209,4.0,10.0,60,0.00,,,0.00,83.00,VWS V14.01,2013-02-02 19:34:00,
2013-02-02 14:39:00,24.9,13.0,30.13,South,180,6.0,8.0,60,0.00,,,0.00,84.00,VWS V14.01,2013-02-02 19:39:00,
2013-02-02 14:44:00,25.1,13.6,30.12,South,184,3.0,10.0,61,0.00,,,0.00,77.00,VWS V14.01,2013-02-02 19:44:00,
2013-02-02 14:49:00,25.1,13.9,30.12,South,190,4.0,11.0,62,0.00,,,0.00,72.00,VWS V14.01,2013-02-02 19:49:00,
2013-02-02 14:54:00,24.9,14.5,30.12,SSW,192,2.0,10.0,64,0.00,,,0.00,69.00,VWS V14.01,2013-02-02 19:54:00,
2013-02-02 15:00:00,24.7,15.3,30.12,SSW,196,8.0,9.0,67,0.00,,,0.00,69.00,VWS V14.01,2013-02-02 20:00:00,
2013-02-02 15:05:00,24.5,15.8,30.12,SSW,203,6.0,11.0,69,0.00,,,0.00,79.00,VWS V14.01,2013-02-02 20:05:00,
2013-02-02 15:10:00,24.4,16.4,30.11,South,171,5.0,9.0,71,0.00,,,0.00,79.00,VWS V14.01,2013-02-02 20:10:00,
2013-02-02 15:15:00,24.3,17.2,30.11,SSW,197,7.0,8.0,74,0.00,,,0.00,56.00,VWS V14.01,2013-02-02 20:15:00,
2013-02-02 15:20:00,24.0,17.5,30.11,South,176,1.0,8.0,76,0.00,,,0.00,54.00,VWS V14.01,2013-02-02 20:20:00,
2013-02-02 15:25:00,23.7,17.6,30.11,South,170,4.0,6.0,77,0.00,,,0.00,65.00,VWS V14.01,2013-02-02 20:25:00,
2013-02-02 15:30:00,23.6,17.8,30.10,SSE,161,3.0,7.0,78,0.00,,,0.00,90.00,VWS V14.01,2013-02-02 20:30:00,
2013-02-02 15:35:00,23.7,18.1,30.10,SSE,166,3.0,4.0,79,0.00,,,0.00,137.00,VWS V14.01,2013-02-02 20:35:00,
2013-02-02 15:40:00,23.9,18.6,30.09,SSE,168,3.0,7.0,80,0.00,,,0.00,209.00,VWS V14.01,2013-02-02 20:40:00,
2013-02-02 15:45:00,24.1,18.8,30.09,South,178,3.0,8.0,80,0.00,,,0.00,209.00,VWS V14.01,2013-02-02 20:45:00,
2013-02-02 15:50:00,24.4,18.8,30.09,SSE,155,5.0,8.0,79,0.00,,,0.00,162.00,VWS V14.01,2013-02-02 20:50:00,
2013-02-02 15:55:00,24.5,18.6,30.08,South,179,3.0,7.0,78,0.00,,,0.00,218.00,VWS V14.01,2013-02-02 20:55:00,
2013-02-02 16:00:00,25.0,18.8,30.08,SSE,167,4.0,7.0,77,0.00,,,0.00,174.00,VWS V14.01,2013-02-02 21:00:00,
2013-02-02 16:05:00,25.2,18.7,30.07,South,169,3.0,8.0,76,0.00,,,0.00,118.00,VWS V14.01,2013-02-02 21:05:00,
2013-02-02 16:10:00,25.4,18.9,30.07,South,173,5.0,8.0,76,0.00,,,0.00,104.00,VWS V14.01,2013-02-02 21:10:00,
2013-02-02 16:15:00,25.4,18.6,30.06,South,188,4.0,8.0,75,0.00,,,0.00,102.00,VWS V14.01,2013-02-02 21:15:00,
2013-02-02 16:20:00,25.4,18.3,30.07,South,170,5.0,8.0,74,0.00,,,0.00,97.00,VWS V14.01,2013-02-02 21:20:00,
2013-02-02 16:25:00,25.4,18.3,30.06,SE,141,9.0,9.0,74,0.00,,,0.00,90.00,VWS V14.01,2013-02-02 21:25:00,
2013-02-02 16:30:00,25.4,18.3,30.06,SSW,192,0.0,4.0,74,0.00,,,0.00,77.00,VWS V14.01,2013-02-02 21:30:00,
2013-02-02 16:35:00,25.5,18.7,30.06,SE,137,3.0,4.0,75,0.00,,,0.00,62.00,VWS V14.01,2013-02-02 21:35:00,
2013-02-02 16:41:00,25.5,18.7,30.06,South,186,4.0,8.0,75,0.00,,,0.00,46.00,VWS V14.01,2013-02-02 21:41:00,
2013-02-02 16:46:00,25.4,18.6,30.05,South,175,3.0,5.0,75,0.00,,,0.00,33.00,VWS V14.01,2013-02-02 21:46:00,
2013-02-02 16:51:00,25.4,18.6,30.06,South,172,3.0,5.0,75,0.00,,,0.00,40.00,VWS V14.01,2013-02-02 21:51:00,
2013-02-02 16:56:00,25.5,18.7,30.05,South,178,3.0,7.0,75,0.00,,,0.00,53.00,VWS V14.01,2013-02-02 21:56:00,
2013-02-02 17:01:00,25.6,18.8,30.06,SSE,156,3.0,4.0,75,0.00,,,0.00,49.00,VWS V14.01,2013-02-02 22:01:00,
2013-02-02 17:06:00,25.7,18.9,30.06,South,175,4.0,10.0,75,0.00,,,0.00,40.00,VWS V14.01,2013-02-02 22:06:00,
2013-02-02 17:11:00,25.8,18.7,30.06,South,184,5.0,7.0,74,0.00,,,0.00,28.00,VWS V14.01,2013-02-02 22:11:00,
2013-02-02 17:16:00,25.8,18.7,30.06,South,190,3.0,8.0,74,0.00,,,0.00,26.00,VWS V14.01,2013-02-02 22:16:00,
2013-02-02 17:21:00,25.9,18.8,30.06,South,185,5.0,6.0,74,0.00,,,0.00,18.00,VWS V14.01,2013-02-02 22:21:00,
2013-02-02 17:26:00,25.9,18.5,30.06,South,180,1.0,5.0,73,0.00,,,0.00,7.00,VWS V14.01,2013-02-02 22:26:00,
2013-02-02 17:32:00,26.0,18.5,30.05,South,184,0.0,2.0,73,0.00,,,0.00,0.00,VWS V14.01,2013-02-02 22:32:00,
2013-02-02 17:37:00,26.0,18.5,30.05,SSW,210,3.0,7.0,73,0.00,,,0.00,0.00,VWS V14.01,2013-02-02 22:37:00,
2013-02-02 17:42:00,26.1,18.6,30.05,South,180,3.0,7.0,73,0.00,,,0.00,0.00,VWS V14.01,2013-02-02 22:42:00,
2013-02-02 17:47:00,26.2,18.7,30.05,SSE,167,3.0,4.0,73,0.00,,,0.00,0.00,VWS V14.01,2013-02-02 22:47:00,
2013-02-02 17:52:00,26.2,18.7,30.05,SSE,154,2.0,3.0,73,0.00,,,0.00,0.00,VWS V14.01,2013-02-02 22:52:00,
2013-02-02 17:57:00,26.2,18.7,30.04,South,183,1.0,3.0,73,0.00,,,0.00,0.00,VWS V14.01,2013-02-02 22:57:00,
2013-02-02 18:02:00,26.2,18.7,30.04,SSE,165,1.0,3.0,73,0.00,,,0.00,0.00,VWS V14.01,2013-02-02 23:02:00,
2013-02-02 18:07:00,26.2,18.7,30.04,South,172,1.0,4.0,73,0.00,,,0.00,0.00,VWS V14.01,2013-02-02 23:07:00,
2013-02-02 18:12:00,26.2,18.7,30.04,South,173,4.0,4.0,73,0.00,,,0.00,0.00,VWS V14.01,2013-02-02 23:12:00,
2013-02-02 18:17:00,26.2,18.7,30.04,South,175,2.0,3.0,73,0.00,,,0.00,0.00,VWS V14.01,2013-02-02 23:17:00,
2013-02-02 18:23:00,26.3,18.8,30.04,South,178,3.0,6.0,73,0.00,,,0.00,0.00,VWS V14.01,2013-02-02 23:23:00,
2013-02-02 18:28:00,26.4,19.2,30.04,South,183,3.0,7.0,74,0.00,,,0.00,0.00,VWS V14.01,2013-02-02 23:28:00,
2013-02-02 18:33:00,26.4,19.2,30.04,South,173,3.0,6.0,74,0.00,,,0.00,0.00,VWS V14.01,2013-02-02 23:33:00,
2013-02-02 18:38:00,26.5,19.7,30.05,South,186,3.0,5.0,75,0.00,,,0.00,0.00,VWS V14.01,2013-02-02 23:38:00,
2013-02-02 18:43:00,26.6,20.1,30.04,SSW,195,2.0,6.0,76,0.00,,,0.00,0.00,VWS V14.01,2013-02-02 23:43:00,
2013-02-02 18:48:00,26.6,20.4,30.04,SSE,165,4.0,8.0,77,0.00,,,0.00,0.00,VWS V14.01,2013-02-02 23:48:00,
2013-02-02 18:53:00,26.6,20.7,30.04,South,172,2.0,6.0,78,0.00,,,0.00,0.00,VWS V14.01,2013-02-02 23:53:00,
2013-02-02 18:58:00,26.6,21.0,30.04,South,188,3.0,8.0,79,0.00,,,0.00,0.00,VWS V14.01,2013-02-02 23:58:00,
2013-02-02 19:03:00,26.6,21.0,30.04,South,182,3.0,10.0,79,0.00,,,0.00,0.00,VWS V14.01,2013-02-03 00:03:00,
2013-02-02 19:08:00,26.5,20.9,30.04,South,188,4.0,5.0,79,0.00,,,0.00,0.00,VWS V14.01,2013-02-03 00:08:00,
2013-02-02 19:13:00,26.5,21.2,30.04,South,184,2.0,7.0,80,0.00,,,0.00,0.00,VWS V14.01,2013-02-03 00:13:00,
2013-02-02 19:19:00,26.4,21.1,30.03,South,191,3.0,6.0,80,0.00,,,0.00,0.00,VWS V14.01,2013-02-03 00:19:00,
2013-02-02 19:24:00,26.4,21.1,30.03,South,182,0.0,7.0,80,0.00,,,0.00,0.00,VWS V14.01,2013-02-03 00:24:00,
2013-02-02 19:29:00,26.3,21.0,30.03,South,182,5.0,7.0,80,0.00,,,0.00,0.00,VWS V14.01,2013-02-03 00:29:00,
2013-02-02 19:34:00,26.3,21.3,30.03,South,178,5.0,7.0,81,0.00,,,0.00,0.00,VWS V14.01,2013-02-03 00:34:00,
2013-02-02 19:39:00,26.4,21.4,30.03,SSE,164,4.0,9.0,81,0.00,,,0.00,0.00,VWS V14.01,2013-02-03 00:39:00,
2013-02-02 19:44:00,26.4,21.4,30.03,South,184,5.0,10.0,81,0.00,,,0.00,0.00,VWS V14.01,2013-02-03 00:44:00,
2013-02-02 19:49:00,26.5,21.5,30.03,SSW,200,2.0,6.0,81,0.00,,,0.00,0.00,VWS V14.01,2013-02-03 00:49:00,
2013-02-02 19:54:00,26.6,21.6,30.03,SSE,161,4.0,10.0,81,0.00,,,0.00,0.00,VWS V14.01,2013-02-03 00:54:00,
2013-02-02 19:59:00,26.6,21.6,30.02,South,186,1.0,6.0,81,0.00,,,0.00,0.00,VWS V14.01,2013-02-03 00:59:00,
2013-02-02 20:04:00,26.7,21.7,30.02,South,178,2.0,8.0,81,0.00,,,0.00,0.00,VWS V14.01,2013-02-03 01:04:00,
2013-02-02 20:09:00,26.7,22.0,30.02,South,179,3.0,6.0,82,0.00,,,0.00,0.00,VWS V14.01,2013-02-03 01:09:00,
2013-02-02 20:15:00,26.7,22.0,30.02,South,180,0.0,6.0,82,0.00,,,0.00,0.00,VWS V14.01,2013-02-03 01:15:00,
2013-02-02 20:20:00,26.8,22.0,30.02,South,174,3.0,5.0,82,0.00,,,0.00,0.00,VWS V14.01,2013-02-03 01:20:00,
2013-02-02 20:25:00,26.8,22.0,30.02,SSW,211,6.0,8.0,82,0.00,,,0.00,0.00,VWS V14.01,2013-02-03 01:25:00,
2013-02-02 20:30:00,26.9,22.1,30.02,South,182,5.0,6.0,82,0.00,,,0.00,0.00,VWS V14.01,2013-02-03 01:30:00,
2013-02-02 20:35:00,26.9,22.1,30.02,SW,215,5.0,7.0,82,0.00,,,0.00,0.00,VWS V14.01,2013-02-03 01:35:00,
2013-02-02 20:40:00,26.9,22.1,30.01,South,179,2.0,7.0,82,0.00,,,0.00,0.00,VWS V14.01,2013-02-03 01:40:00,
2013-02-02 20:45:00,27.0,22.2,30.02,SSW,209,4.0,6.0,82,0.00,,,0.00,0.00,VWS V14.01,2013-02-03 01:45:00,
2013-02-02 20:50:00,27.0,22.2,30.02,South,171,0.0,5.0,82,0.00,,,0.00,0.00,VWS V14.01,2013-02-03 01:50:00,
2013-02-02 20:55:00,27.0,22.2,30.01,South,186,0.0,3.0,82,0.00,,,0.00,0.00,VWS V14.01,2013-02-03 01:55:00,
2013-02-02 21:00:00,27.0,22.2,30.01,SSW,193,3.0,4.0,82,0.00,,,0.00,0.00,VWS V14.01,2013-02-03 02:00:00,
2013-02-02 21:05:00,27.1,22.6,30.01,South,183,0.0,2.0,83,0.00,,,0.00,0.00,VWS V14.01,2013-02-03 02:05:00,
2013-02-02 21:10:00,27.1,22.6,30.01,SSW,202,3.0,3.0,83,0.00,,,0.00,0.00,VWS V14.01,2013-02-03 02:10:00,
2013-02-02 21:15:00,27.1,22.6,30.01,South,182,1.0,3.0,83,0.00,,,0.00,0.00,VWS V14.01,2013-02-03 02:15:00,
2013-02-02 21:20:00,27.1,22.6,30.01,SSW,193,0.0,2.0,83,0.00,,,0.00,0.00,VWS V14.01,2013-02-03 02:20:00,
2013-02-02 21:26:00,27.1,22.6,30.01,South,183,0.0,2.0,83,0.00,,,0.00,0.00,VWS V14.01,2013-02-03 02:26:00,
2013-02-02 21:31:00,27.1,22.6,30.01,South,184,0.0,1.0,83,0.00,,,0.00,0.00,VWS V14.01,2013-02-03 02:31:00,
2013-02-02 21:36:00,27.1,22.6,30.01,SSW,199,3.0,3.0,83,0.00,,,0.00,0.00,VWS V14.01,2013-02-03 02:36:00,
2013-02-02 21:41:00,27.0,22.5,30.01,SSW,202,0.0,0.0,83,0.00,,,0.00,0.00,VWS V14.01,2013-02-03 02:41:00,
2013-02-02 21:46:00,27.0,22.5,30.01,SSW,202,0.0,0.0,83,0.00,,,0.00,0.00,VWS V14.01,2013-02-03 02:46:00,
2013-02-02 21:51:00,27.0,22.5,30.00,SSW,202,0.0,0.0,83,0.00,,,0.00,0.00,VWS V14.01,2013-02-03 02:51:00,
2013-02-02 21:56:00,27.0,22.5,30.00,SSW,202,0.0,0.0,83,0.00,,,0.00,0.00,VWS V14.01,2013-02-03 02:56:00,
2013-02-02 22:01:00,26.9,22.7,30.00,SSW,202,0.0,3.0,84,0.00,,,0.00,0.00,VWS V14.01,2013-02-03 03:01:00,
2013-02-02 22:06:00,26.9,22.7,30.00,SSW,202,0.0,1.0,84,0.00,,,0.00,0.00,VWS V14.01,2013-02-03 03:06:00,
2013-02-02 22:11:00,26.9,22.7,30.00,SSW,202,0.0,0.0,84,0.00,,,0.00,0.00,VWS V14.01,2013-02-03 03:11:00,
2013-02-02 22:17:00,26.9,22.7,30.00,SSW,202,0.0,0.0,84,0.00,,,0.00,0.00,VWS V14.01,2013-02-03 03:17:00,
2013-02-02 22:22:00,26.9,22.7,30.00,SSW,202,0.0,0.0,84,0.00,,,0.00,0.00,VWS V14.01,2013-02-03 03:22:00,
2013-02-02 22:27:00,26.9,22.7,30.00,SSW,202,0.0,0.0,84,0.00,,,0.00,0.00,VWS V14.01,2013-02-03 03:27:00,
2013-02-02 22:32:00,26.8,22.6,30.00,SSW,202,0.0,0.0,84,0.00,,,0.00,0.00,VWS V14.01,2013-02-03 03:32:00,
2013-02-02 22:37:00,26.7,22.5,30.00,SSW,202,0.0,0.0,84,0.00,,,0.00,0.00,VWS V14.01,2013-02-03 03:37:00,
2013-02-02 22:42:00,26.7,22.5,30.00,SSW,202,0.0,0.0,84,0.00,,,0.00,0.00,VWS V14.01,2013-02-03 03:42:00,
2013-02-02 22:47:00,26.6,22.4,30.00,SSW,202,0.0,0.0,84,0.00,,,0.00,0.00,VWS V14.01,2013-02-03 03:47:00,
2013-02-02 22:52:00,26.6,22.4,30.00,SSW,203,0.0,1.0,84,0.00,,,0.00,0.00,VWS V14.01,2013-02-03 03:52:00,
2013-02-02 22:57:00,26.5,22.6,30.00,SSW,203,0.0,0.0,85,0.00,,,0.00,0.00,VWS V14.01,2013-02-03 03:57:00,
2013-02-02 23:02:00,26.5,22.6,30.00,SSW,203,0.0,0.0,85,0.00,,,0.00,0.00,VWS V14.01,2013-02-03 04:02:00,
2013-02-02 23:07:00,26.5,22.6,30.00,SSW,203,0.0,0.0,85,0.00,,,0.00,0.00,VWS V14.01,2013-02-03 04:07:00,
2013-02-02 23:13:00,26.4,22.5,30.00,SSW,203,0.0,0.0,85,0.00,,,0.00,0.00,VWS V14.01,2013-02-03 04:13:00,
2013-02-02 23:18:00,26.4,22.5,30.00,SSW,203,0.0,0.0,85,0.00,,,0.00,0.00,VWS V14.01,2013-02-03 04:18:00,
2013-02-02 23:23:00,26.4,22.8,30.00,SSW,203,0.0,0.0,86,0.00,,,0.00,0.00,VWS V14.01,2013-02-03 04:23:00,
2013-02-02 23:28:00,26.4,22.8,30.00,SSW,203,0.0,0.0,86,0.00,,,0.00,0.00,VWS V14.01,2013-02-03 04:28:00,
2013-02-02 23:33:00,26.3,22.7,30.00,SSW,203,0.0,0.0,86,0.00,,,0.00,0.00,VWS V14.01,2013-02-03 04:33:00,
2013-02-02 23:38:00,26.3,22.7,30.00,SSW,203,0.0,0.0,86,0.00,,,0.00,0.00,VWS V14.01,2013-02-03 04:38:00,
2013-02-02 23:43:00,26.3,22.7,30.00,SSW,203,0.0,0.0,86,0.00,,,0.00,0.00,VWS V14.01,2013-02-03 04:43:00,
2013-02-02 23:48:00,26.3,22.7,30.00,SSW,203,0.0,0.0,86,0.00,,,0.00,0.00,VWS V14.01,2013-02-03 04:48:00,
2013-02-02 23:53:00,26.2,22.6,30.00,SSW,203,0.0,0.0,86,0.00,,,0.00,0.00,VWS V14.01,2013-02-03 04:53:00,
2013-02-02 23:58:00,26.2,22.6,30.00,SSW,203,0.0,0.0,86,0.00,,,0.00,0.00,VWS V14.01,2013-02-03 04:58:00,